Regional Weather Roundup
Issued by NWS

Home | Current Version | Previous Version | Graphics & Text | Print | Product List | Glossary On
Versions: 1 2 3 4 5 6 7 8 9 10 11 12 13 14 15 16 17 18 19 20 21 22 23 24 25 26 27 28 29 30 31 32 33 34 35 36 37 38 39 40 41 42 43 44 45 46 47 48 49 50
000
ASUS45 KCYS 122310
RWRWY

WYOMING REGIONAL WEATHER ROUNDUP
NATIONAL WEATHER SERVICE CHEYENNE WY
500 PM MDT SAT JUL 12 2014

NOTE:  "FAIR" INDICATES FEW OR NO CLOUDS BELOW 12,000 FEET
WITH NO SIGNIFICANT WEATHER AND/OR OBSTRUCTIONS TO VISIBILITY.

WYZ001-130000-
YELLOWSTONE NATIONAL PARK

CITY           SKY/WX    TMP DP  RH WIND       PRES   REMARKS
LK YELLOWSTONE   N/A     60  57  89 W3        30.50F
W YELLOWSTONE  NOT AVBL

$$
WYZ002>013-054>058-071-098>099-130000-
NORTHERN WYOMING

CITY           SKY/WX    TMP DP  RH WIND       PRES   REMARKS
JACKSON        SUNNY     79  45  29 MISG      30.34S
CODY           CLOUDY    75  55  50 N5        30.29S
GREYBULL       MOSUNNY   88  47  24 NW16G23   30.17R
WORLAND        PTSUNNY   84  49  29 CALM      30.20S
SHERIDAN       MOSUNNY   85  52  32 N10       30.23S
BUFFALO        CLOUDY    77  53  43 NW9       30.30S
GILLETTE       PTSUNNY   82  53  36 NE18      30.22F
HULETT         FAIR      79  54  41 MISG      30.23
NEWCASTLE      FAIR      84  48  28 N18       30.19

$$
WYZ014>020-022>026-101>103-130000-
CENTRAL WYOMING

CITY           SKY/WX    TMP DP  RH WIND       PRES   REMARKS
BIG PINEY      MOSUNNY   79  43  27 NE15      30.37S
PINEDALE       MOCLDY    72  46  40 NE8       30.38R
DUBOIS         FAIR      64  48  55 S15G24    30.43R
LANDER         PTSUNNY   78  52  40 N10       30.29S
RIVERTON       PTSUNNY   79  51  37 N6        30.30R
CASPER         PTSUNNY   82  54  37 N18       30.27S
DOUGLAS        MOSUNNY   84  51  31 N14G20    30.24F

$$
WYZ021-027>030-104>119-130000-
SOUTHERN WYOMING

CITY           SKY/WX    TMP DP  RH WIND       PRES   REMARKS
EVANSTON       MOSUNNY   80  45  28 NE5       30.36F
KEMMERER       PTCLDY   N/A N/A N/A NE5       30.38F
ROCK SPRINGS   MOSUNNY   82  43  25 S6        30.32F
DIXON          FAIR      81  48  30 E7        30.32F
RAWLINS        MOSUNNY   80  40  23 VRB5      30.34F
SARATOGA       FAIR      81  45  28 NE10G18   30.37S
LARAMIE        MOSUNNY   74  49  41 N9        30.39F
CHEYENNE       MOSUNNY   76  52  43 NE9G17    30.32F
TORRINGTON     MOSUNNY   86  55  34 NW6       30.18F

$$



USA.gov is the U.S. government's official web portal to all federal, state and local government web resources and services.